Regional Weather Roundup
Issued by NWS

Home | Current Version | Previous Version | Text Only | Print | Product List | Glossary On
Versions: 1 2 3 4 5 6 7 8 9 10 11 12 13 14 15 16 17 18 19 20 21 22 23 24 25 26 27 28 29 30 31 32 33 34 35 36 37 38 39 40 41 42 43 44 45 46 47 48 49 50
000
ASUS46 KLOX 180804
RWRCA

SOUTHERN CALIFORNIA WEATHER ROUNDUP
NATIONAL WEATHER SERVICE OXNARD CALIFORNIA
100 AM PDT WED OCT 18 2017

NOTE: "FAIR" INDICATES FEW OR NO CLOUDS BELOW 12,000 FEET WITH NO
SIGNIFICANT WEATHER AND/OR OBSTRUCTIONS TO VISIBILITY.

  -  STATIONS PRECEEDED BY AN ASTERISK (*) ARE NOT NWS OR FAA
     STATIONS AND ARE NOT SUBJECT TO NWS AND FAA QUALITY CONTROL.

CAZ041-042-087-180900-
LA AND ORANGE COUNTY COASTAL AREAS


CITY           SKY/WX    TMP DP  RH WIND       PRES   REMARKS
L.A. DOWNTOWN  CLEAR     72  54  53 CALM      29.91F
L.A. AIRPORT   PTCLDY    71  57  61 S3        29.92F
LONG BEACH     CLEAR     69  62  78 E3        29.92S

CITY           SKY/WX    TMP DP  RH WIND       PRES   REMARKS
AVALON           N/A     63 N/A N/A S3          N/A
FULLERTON      CLEAR     71  59  65 CALM      29.91F
*GETTY CENTER    N/A     73  45  35 N3          N/A
HAWTHORNE      CLEAR     71  56  58 CALM      29.92S
*LEO CARRILLO    N/A     68  39  35 NE5         N/A
*LOS ALAMITOS  FAIR      68  60  75 SE3       29.92S
*REDONDO BEACH   N/A     68  54  60 CALM      29.91S
SANTA ANA      CLEAR     69  53  56 CALM      29.92F
STA MONICA APT CLEAR     70  56  61 S3        29.92S
*STA MON PIER    N/A     69  59  71 CALM      29.90
*UCLA            N/A     72  48  43 CALM      29.90S

$$

CAZ547-548-048-180900-
LA COUNTY VALLEYS AND INLAND EMPIRE


CITY           SKY/WX    TMP DP  RH WIND       PRES   REMARKS
BURBANK        CLEAR     74  45  35 E5        29.93F
VAN NUYS       CLEAR     74  44  34 NE3       29.93F

CITY           SKY/WX    TMP DP  RH WIND       PRES   REMARKS
*CHATSWORTH      N/A     69  43  38 CALM      29.89S
CHINO          CLEAR     65  47  52 CALM      29.95F HAZE
*CLAREMONT       N/A     69  35  28 N2          N/A
MARCH AFB      CLEAR     63  38  39 CALM      29.98F
*NORTHRIDGE      N/A     72  39  30 N1          N/A
ONTARIO        PTCLDY    72  39  30 CALM      29.95F
*PASADENA        N/A     72  45  37 CALM        N/A
RIVERSIDE      CLEAR     70  42  36 E3        29.95F
SAN BERNARDINO FAIR      68  35  28 NE3       29.97S
*SAN RAFAEL HI   N/A     74  32  21 E8          N/A
*SAUGUS          N/A     74  26  17 NE3         N/A
*WHITEMAN AP   NOT AVBL
*WHITTIER HILL   N/A     71  47  41 SE7         N/A
*WOODLAND HILL   N/A     66  39  37 S1          N/A

$$

CAZ054-055-180900-
LA AND SAN BERNARDINO COUNTY MOUNTAINS


CITY           SKY/WX    TMP DP  RH WIND       PRES   REMARKS
*ACTON           N/A     64  28  25 N6          N/A
*BIG BEAR AIRP SUNNY     43  28  56 CALM      30.29S
*BIG PINES       N/A     60  32  35 CALM        N/A
SANDBERG       CLEAR     68  21  16 N16       30.16F

$$

CAZ028-029-059-060-099-180900-
ANTELOPE VALLEY AND SURROUNDING AREAS


CITY           SKY/WX    TMP DP  RH WIND       PRES   REMARKS
LANCASTER      CLEAR     62  19  19 E3        30.04F
PALMDALE       CLEAR     63  24  22 S9        30.05F
*POPPY PARK      N/A     71  18  13 W9          N/A

CITY           SKY/WX    TMP DP  RH WIND       PRES   REMARKS
29 PALMS       CLEAR     73  21  14 NW8       30.06S
BARSTOW/DAGGET PTCLDY    69  19  15 W7        29.99F
BISHOP         CLOUDY    49  30  48 NW6       30.14F
CHINA LAKE     MOCLDY    62  13  14 SW5       30.00F
EDWARDS AFB    MOCLDY    63  20  19 SW9       30.00F
MOJAVE         CLEAR     75  14   9 NW16      30.04F
NEEDLES        CLEAR     73  10   9 SW3       29.92S
VICTORVILLE    CLEAR     66  16  14 CALM      30.07F

$$

CAZ039-040-180900-
VENTURA AND SANTA BARBARA COUNTY COAST


CITY           SKY/WX    TMP DP  RH WIND       PRES   REMARKS
CAMARILLO      CLEAR     66  55  67 CALM      29.91S
NWS OXNARD       N/A     64  54  71 CALM      29.89S
OXNARD AIRPORT CLEAR     64  55  72 CALM      29.91R
*POINT MUGU    CLEAR     65  57  75 CALM      29.92R HAZE
SBA APT/GOLETA CLEAR     62  55  77 CALM      29.89F
*VENTURA         N/A     65  55  72 CALM      29.87S

$$

CAZ044-045-180900-
VENTURA COUNTY VALLEYS


CITY           SKY/WX    TMP DP  RH WIND       PRES   REMARKS
*SIMI VALLEY     N/A     76  38  25 E1        29.83S
*WESTLAKE VILL   N/A     61  44  53 CALM      29.89S
*OJAI            N/A     60  45  58 CALM      29.84S
*FILLMORE        N/A     67  41  39 CALM      29.93S

$$

CAZ053-180900-
VENTURA COUNTY MOUNTAINS


CITY           SKY/WX    TMP DP  RH WIND       PRES   REMARKS
*LOCKWOOD VLY    N/A     46  27  46 NW3         N/A
*ROSE VALLEY     N/A     50  25  37 N3          N/A

$$

CAZ034-035-036-180900-
CENTRAL COAST AND SANTA YNEZ VALLEY


CITY           SKY/WX    TMP DP  RH WIND       PRES   REMARKS
SAN LUIS OBISP CLOUDY    67  52  58 VRB3      29.98F
SANTA MARIA    CLOUDY    63  57  81 CALM      29.99S

CITY           SKY/WX    TMP DP  RH WIND       PRES   REMARKS
*CAL POLY SLO    N/A     77  37  24 S7          N/A
*LOMPOC        MOCLDY    61  57  87 W7        29.99S
*PISMO BEACH     N/A     66  58  74 W1        29.98S
*SANTA YNEZ    FAIR      55  39  54 NE7       29.98F

$$

CAZ037-038-051-180900-
SAN LUIS OBISPO COUNTY INTERIOR AND CUYAMA VALLEY


CITY           SKY/WX    TMP DP  RH WIND       PRES   REMARKS
*CUYAMA          N/A     61  40  46 CALM      29.98S
PASO ROBLES    CLOUDY    68  34  28 NW6       30.04F

$$

CAZ032-033-061-180900-
SOUTHERN DESERTS


CITY           SKY/WX    TMP DP  RH WIND       PRES   REMARKS
BLYTHE         CLEAR     70  16  12 CALM      29.88F
IMPERIAL       CLEAR     70  33  25 CALM      29.85S
PALM SPRINGS   CLEAR     76  25  15 CALM      29.90F
THERMAL        CLEAR     68  37  32 N7        29.84F

$$

ELSEWHERE ACROSS THE WESTERN UNITED STATES AND MEXICO


CITY           SKY/WX    TMP DP  RH WIND       PRES   REMARKS
DENVER, CO     CLOUDY    56  16  20 SW15      30.07S
GRAND CANYON,  CLOUDY    35  17  47 CALM      30.29S HAZE
HONOLULU, HI   MOCLDY    77  65  66 E23G29    30.09R
KAHULUI, MAUI  PTCLDY    78  65  63 NE14G24   30.09R
LAKE TAHOE, CA PTCLDY    30  19  63 CALM      30.28F
LAS VEGAS, NV  PTCLDY    66  21  18 S6        29.99S
MAMMOTH LAKES, FAIR      41  27  57 CALM      30.32F
MEXICO CITY, M CLEAR     55  48  76 NW5       30.41S
PHOENIX, AZ    MOCLDY    79  50  36 CALM      29.90S
PORTLAND, OR   CLOUDY    50  49  96 CALM      30.09F FOG
RENO, NV       PTCLDY    47  19  33 W3        30.22R
SALT LAKE CITY PTCLDY    46  37  71 CALM      30.15F
SAN DIEGO, CA  PTCLDY    70  59  68 CALM      29.94F
SAN FRANCISCO, CLEAR     50  47  89 NW16      30.06F
SAN JOSE, CA   PTCLDY    55  52  89 W8        30.07S
SEATTLE, WA    CLOUDY    49  43  80 SE5       30.08F
TIJUANA, MEX   PTCLDY    68  48  49 CALM      29.96F

$$

STATION/POSITION TIME  TEMP    WIND        PRES    VSBY  WAVE
                       AIR SEA DIR/SP/G                  HT/PER
                 (UTC) (F)     (DEG/KT/KT) (MB)    (MI)  (FT/S)
POINT ARGUELLO B NOT AVBL
WEST SANTA BARBA 0750   63 63  300/ 21/ 25 1013.4F         6/16
POINT CONCEPTION NOT AVBL
EAST SANTA BARBA 0750   68 67  310/  2/  6 1013.2R         4/ 6
SANTA MONICA BAY 0750      69  170/  4/  6 1012.4S         4/17


USA.gov is the U.S. government's official web portal to all federal, state and local government web resources and services.